Location: Garos
(43.5000°N, 0.4667°W)
Time: 03:01:06
(UTC+00:00)

MINOTAUR 4 R/B - Pass Details

Date: 03 February 2023
Orbit: 447 x 452 km, 98.0° (Epoch: 26 March)

Event Time Altitude Azimuth Distance (km) Brightness Sun altitude
Exits shadow 18:51:42 22° 18° (NNE) 1,025 5.5 -17.7°
Maximum altitude 18:53:45 79° 103° (ESE) 462 3.7 -18.0°
Drops below altitude 10° 18:57:07 10° 190° (S) 1,570 6.8 -18.6°
Sets 18:59:07 0° 192° (SSW) 2,437 7.8 -19.0°
